TimeEDT,TemperatureF,Dew PointF,Humidity,Sea Level PressureIn,VisibilityMPH,Wind Direction,Wind SpeedMPH,Gust SpeedMPH,PrecipitationIn,Events,Conditions,WindDirDegrees,DateUTC
12:05 AM,78.8,75.2,89,30.29,8.0,ESE,3.5,-,N/A,,Overcast,120,2013-07-14 04:05:00
12:54 AM,78.1,75.0,90,30.31,9.0,SE,4.6,-,N/A,,Overcast,130,2013-07-14 04:54:00
1:54 AM,77.0,73.9,90,30.31,7.0,ESE,4.6,-,N/A,,Overcast,120,2013-07-14 05:54:00
2:32 AM,78.8,75.2,89,30.29,1.8,SSE,4.6,-,N/A,,Overcast,160,2013-07-14 06:32:00
2:54 AM,77.0,75.0,94,30.30,1.8,SSE,3.5,-,N/A,,Overcast,160,2013-07-14 06:54:00
3:30 AM,77.0,75.2,94,30.29,0.8,SE,3.5,-,N/A,,Mist,140,2013-07-14 07:30:00
3:40 AM,77.0,75.2,94,30.29,1.0,SSE,3.5,-,N/A,,Mist,160,2013-07-14 07:40:00
3:54 AM,77.0,73.9,90,30.30,1.0,SE,4.6,-,N/A,,Mist,140,2013-07-14 07:54:00
4:11 AM,77.0,73.4,89,30.30,0.8,Calm,Calm,-,N/A,,Mist,0,2013-07-14 08:11:00
4:54 AM,77.0,73.9,90,30.30,0.5,Calm,Calm,-,N/A,Fog,Fog,0,2013-07-14 08:54:00
5:21 AM,77.0,73.4,89,30.30,1.0,Calm,Calm,-,N/A,,Mist,0,2013-07-14 09:21:00
5:54 AM,77.0,73.9,90,30.32,0.8,Calm,Calm,-,N/A,,Mist,0,2013-07-14 09:54:00
6:08 AM,77.0,73.4,89,30.31,0.2,Calm,Calm,-,N/A,Fog,Fog,0,2013-07-14 10:08:00
6:31 AM,77.0,73.4,89,30.31,0.5,Calm,Calm,-,N/A,Fog,Fog,0,2013-07-14 10:31:00
6:54 AM,77.0,75.0,94,30.33,1.2,SSE,3.5,-,N/A,,Overcast,150,2013-07-14 10:54:00
7:18 AM,78.8,75.2,89,30.33,3.0,ESE,4.6,-,N/A,,Overcast,120,2013-07-14 11:18:00
7:54 AM,78.1,75.0,90,30.34,10.0,Calm,Calm,-,N/A,,Overcast,0,2013-07-14 11:54:00
8:51 AM,80.6,77.0,89,30.34,10.0,Variable,3.5,-,N/A,,Overcast,0,2013-07-14 12:51:00
8:54 AM,82.0,75.9,82,30.35,10.0,Calm,Calm,-,N/A,,Overcast,0,2013-07-14 12:54:00
9:24 AM,82.4,75.2,79,30.34,10.0,Calm,Calm,-,N/A,,Scattered Clouds,0,2013-07-14 13:24:00
9:54 AM,82.9,73.9,74,30.35,10.0,South,4.6,-,N/A,,Scattered Clouds,190,2013-07-14 13:54:00
10:54 AM,86.0,73.0,65,30.35,10.0,WSW,4.6,-,N/A,,Partly Cloudy,240,2013-07-14 14:54:00
11:54 AM,87.1,72.0,61,30.34,10.0,SSE,3.5,-,N/A,,Partly Cloudy,160,2013-07-14 15:54:00
12:54 PM,88.0,71.1,57,30.34,10.0,SSW,4.6,-,N/A,,Mostly Cloudy,200,2013-07-14 16:54:00
1:54 PM,89.1,72.0,57,30.33,10.0,SSE,4.6,-,N/A,,Mostly Cloudy,160,2013-07-14 17:54:00
2:54 PM,89.1,72.0,57,30.32,10.0,Calm,Calm,-,N/A,,Partly Cloudy,0,2013-07-14 18:54:00
3:54 PM,89.1,73.0,59,30.30,10.0,SSW,6.9,-,N/A,,Partly Cloudy,210,2013-07-14 19:54:00
4:54 PM,88.0,73.0,61,30.30,10.0,SSE,6.9,-,N/A,,Scattered Clouds,160,2013-07-14 20:54:00
5:54 PM,88.0,72.0,59,30.30,10.0,SSE,10.4,-,N/A,,Scattered Clouds,150,2013-07-14 21:54:00
6:54 PM,86.0,70.0,59,30.30,10.0,SSE,6.9,-,N/A,,Clear,150,2013-07-14 22:54:00
7:54 PM,82.9,72.0,69,30.31,10.0,SSE,5.8,-,N/A,,Clear,160,2013-07-14 23:54:00
8:54 PM,80.1,73.0,79,30.31,10.0,SSE,4.6,-,N/A,,Clear,160,2013-07-15 00:54:00
9:54 PM,78.1,73.0,84,30.32,10.0,Calm,Calm,-,N/A,,Clear,0,2013-07-15 01:54:00
10:54 PM,77.0,73.0,88,30.32,10.0,Calm,Calm,-,N/A,,Clear,0,2013-07-15 02:54:00
11:54 PM,75.0,72.0,90,30.32,10.0,Calm,Calm,-,N/A,,Clear,0,2013-07-15 03:54:00